Home   Weather   Radom   Past weeks

Flag for Poland Past Weather in Radom, Poland — Yesterday and Last 2 Weeks

Now
52 °F

Clear.


Feels Like: 52 °F
Forecast: 50 / 77 °F
Wind: 1 mph from East

Location: Kielce

Current Time: Aug 31, 2016 at 11:55:05 PM

Latest Report: Aug 31, 2016 at 11:00 PM


Visibility: 9 mi

Pressure: 30.25 "Hg

Humidity: 90%

Dew Point: 49 °F

Location of RadomLocation

Past Weather in Radom — Graph

°F

Radom Temperature Yesterday

Maximum temperature yesterday: 69 °F (at 5:00 PM)
Minimum temperature yesterday: 55 °F (at 11:00 PM)
Average temperature yesterday: 62 °F

High & Low Weather Summary for the Past Weeks

 TemperatureHumidityPressure
High84 °F (Aug 28, 3:00 PM)100% (Aug 18, 5:00 AM)30.34 "Hg (Aug 18, 5:00 AM)
Low43 °F (Aug 18, 5:00 AM)34% (Aug 19, 4:00 PM)29.84 "Hg (Aug 18, 5:00 PM)
Average64 °F73%30.12 "Hg
* Reported Aug 16 10:00 PM — Aug 31 10:00 PM, Radom, Weather by CustomWeather, © 2016

Note: Actual official high and low records may vary slightly from our data, if they occured in-between our weather recording intervals... More about our weather records

Advertising

Radom Weather History for the Previous 24 Hours

Scroll right to see more
 ConditionsComfort  
Time TempWeatherWind HumidityBarometerVisibility
10:00 PM
Wed, Aug 31
53 °FClear.1 mph86%30.25 "Hg11 mi
9:00 PM57 °FClear.1 mph78%30.24 "Hg22 mi
8:00 PM61 °FClear.1 mph66%30.23 "Hg28 mi
7:00 PM67 °FSunny.1 mph51%30.22 "Hg25 mi
6:00 PM71 °FSunny.1 mph42%30.21 "Hg28 mi
5:00 PM72 °FPassing clouds.1 mph37%30.22 "Hg25 mi
4:00 PM72 °FPassing clouds.1 mph36%30.23 "Hg25 mi
3:00 PM72 °FPassing clouds.2 mph39%30.24 "Hg25 mi
2:00 PM71 °FPassing clouds.2 mph40%30.25 "Hg25 mi
1:00 PM69 °FPassing clouds.2 mph43%30.27 "Hg25 mi
12:00 PM67 °FPassing clouds.1 mph47%30.28 "Hg22 mi
11:00 AM66 °FScattered clouds.1 mph50%30.29 "Hg19 mi
10:00 AM65 °FPassing clouds.2 mph57%30.29 "Hg19 mi
9:00 AM60 °FSunny.1 mph68%30.30 "Hg19 mi
8:00 AM54 °FPassing clouds.1 mph82%30.30 "Hg17 mi
7:00 AM46 °FPassing clouds.No wind95%30.31 "Hg9 mi
6:00 AM46 °FFog.No wind96%30.31 "Hg6 mi
5:00 AM44 °FFog.No wind96%30.31 "Hg6 mi
4:00 AM45 °FClear.No wind95%30.32 "Hg7 mi
3:00 AM45 °FClear.No wind93%30.31 "Hg9 mi
2:00 AM46 °FClear.1 mph94%30.30 "Hg9 mi
1:00 AM47 °FClear.1 mph89%30.30 "Hg14 mi
12:00 AM50 °FClear.1 mph84%30.29 "Hg17 mi
11:00 PM
Tue, Aug 30
55 °FClear.2 mph68%30.27 "Hg19 mi
Weather by CustomWeather, © 2016

See weather overviewHow to use our weather pages